If you wish to contribute or participate in the discussions about articles you are invited to join SKYbrary as a registered user

 Actions

Alfonso Bonilla Aragón International Airport

From SKYbrary Wiki

SKCL
Airport
ICAO: SKCL – IATA: CLO
Summary
Name Alfonso Bonilla Aragón International Airport
Region South America and Caribbean
Territory Colombia CO.gif
Location Palmira, Valle del Cauca Department
Serving Cali
Elevation 963.778 m <br />3,162 ft963.778 m <br />
Coordinates 3° 32' 38.26" N, 76° 23' 2.63" W
Runways
Designator Length Width Surface ROPS
1/19 3000 m9,842.52 ft <br /> 45 m147.638 ft <br /> ASP yes/yes


METAR
Observation SKCL 160000Z 04005KT 9999 FEW030 BKN100 24/19 Q1012 NOSIG RMK A2991
Station Cali / Alfonso Bonillaaragon
Date/Time 16 October 2021 00:00:00
Wind direction 40°
Wind speed 05 kts
Lowest cloud amount few clouds
Temperature 24°C
Dew point 19°C
Humidity 73%
QNH 1012 hPa
Weather condition n/a

Alfonso Bonilla Aragón International Airport also known as Palmaseca International Airport is an airport located in Palmira, Colombia, serving Cali and its suburbs.

Climatology

Tropical savanna climate (Köppen climate classification Aw)

Maps

Terrain

Loading map...

Airport Layout

Loading map...


Accidents & Serious Incidents at or in vicinity of SKCL

None on SKYbrary